This demonstration page uses our WeatherBlox Daily Observations layout. Learn more.

Left ArrowRight Arrow

38.83388, -104.82136

Hourly Observations for March 22, 2018

Temp ( °F °C ) Dew Point ( °F °C ) Humidity (%) Winds ( mph kmh ) Pressure ( in mb ) Visibility ( mi km ) Precip ( " mm )
12:58 am 00:58 Clear 44 6.8 21 -6.3 39 39 Calm 29.69 1005 10 16 0.00 0.00
1:58 am 01:58 Clear 44 6.5 20 -6.6 39 39 WNW 3 6 29.72 1006 10 16 0.00 0.00
2:58 am 02:58 Clear 44 6.7 19 -7 37 37 WNW 6 9 29.71 1006 10 16 0.00 0.00
3:58 am 03:58 Clear 44 6.6 19 -7.4 36 36 Calm 29.71 1006 10 16 0.00 0.00
4:58 am 04:58 Clear 45 7.2 18 -7.6 34 34 SW 3 6 29.73 1007 10 16 0.00 0.00
5:58 am 05:58 Clear 47 8.3 18 -7.8 31 31 WSW 5 7 29.73 1007 10 16 0.00 0.00
6:58 am 06:58 Clear 46 7.6 16 -8.7 31 31 Calm 29.74 1007 10 16 0.00 0.00
7:58 am 07:58 Sunny 50 9.8 19 -7.2 30 30 Calm 29.72 1006 10 16 0.00 0.00
8:58 am 08:58 Sunny 54 12 19 -7.2 26 26 Calm 29.74 1007 10 16 0.00 0.00
9:58 am 09:58 Sunny 56 13.1 19 -7.1 24 24 E 6 9 29.74 1007 10 16 0.00 0.00
10:56 am 10:56 Mostly Sunny 57 13.9 18 -7.6 22 22 E 3 6 29.74 1007 10 16 0.00 0.00
11:56 am 11:56 Partly Cloudy 61 16.2 21 -6.2 21 21 SE 9 15 29.72 1006 10 16 0.00 0.00
12:56 pm 12:56 Partly Cloudy 64 17.8 23 -5.2 21 21 E 6 9 29.68 1005 10 16 0.00 0.00
1:11 pm 13:11 Mostly Cloudy 63 17 23 -5 22 22 SSE 13 20 29.66 1004 10 16 0.00 0.00
1:56 pm 13:56 Mostly Cloudy 62 16.8 22 -5.7 21 21 ESE 14 22 29.63 1003 10 16 0.00 0.00
2:01 pm 14:01 Mostly Cloudy 63 17 21 -6 20 20 SSE 16 26 29.63 1003 10 16 0.00 0.00
2:56 pm 14:56 Mostly Cloudy 62 16.9 20 -6.7 19 19 SSE 14 22 29.63 1003 10 16 0.00 0.00
3:56 pm 15:56 Cloudy 63 17.1 19 -7.1 19 19 SSE 20 31 29.61 1003 10 16 0.00 0.00
4:56 pm 16:56 Cloudy 64 18 21 -5.9 19 19 SE 18 30 29.56 1001 10 16 0.00 0.00
5:56 pm 17:56 Cloudy 63 17.4 23 -4.8 22 22 S 8 13 29.59 1002 10 16 0.00 0.00
6:56 pm 18:56 Cloudy 62 16.6 24 -4.4 24 24 Calm 29.62 1003 10 16 0.00 0.00
7:56 pm 19:56 Mostly Cloudy 58 14.6 25 -3.9 28 28 Calm 29.63 1003 10 16 0.00 0.00
8:21 pm 20:21 Mostly Cloudy 59 15 25 -4 27 27 N 14 22 29.62 1003 10 16 0.00 0.00
8:56 pm 20:56 Mostly Cloudy 59 15 27 -2.6 30 30 NNW 6 9 29.63 1003 10 16 0.00 0.00
9:58 pm 21:58 Mostly Cloudy 58 14.3 28 -2.3 32 32 SSW 7 11 29.60 1002 10 16 0.00 0.00
10:58 pm 22:58 Mostly Cloudy 56 13.1 28 -2.5 34 34 Calm 29.71 1006 10 16 0.00 0.00
11:58 pm 23:58 Mostly Cloudy 56 13.2 27 -2.6 34 34 WNW 8 13 29.68 1005 10 16 0.00 0.00

Powered by AerisWeather